Tracking 19817 objects as of 19-Aug-2019
HD Live streaming from Space Station
objects crossing your sky now

FALCON 9 R/B


FALCON 9 R/B is no longer on orbit


NORAD ID: 41472
Int'l Code: 2016-028B
Perigee: N/A
Apogee: N/A
Inclination: N/A
Period: N/A
Semi major axis: N/A
RCS: N/A
Launch date: May 6, 2016
Source: United States (US)
Launch site: AIR FORCE EASTERN TEST RANGE (AFETR)
Decay date: 2016-09-15

Note: This is a ROCKET BODY
aabbcc
Your satellite tracking list
Your tracking list is empty




NASA's NSSDC Master Catalog

Two Line Element Set (TLE):
1 41472U 16028B   17258.63000369 +.64438539 -72863-5 +12721-2 0  9994
2 41472 023.6751 156.3261 0921645 047.6937 319.8055 14.40070229016480
Source of the keplerian elements: AFSPC